Regional Weather Roundup
Issued by NWS

Home | Current Version | Previous Version | Graphics & Text | Print | Product List | Glossary On
Versions: 1 2 3 4 5 6 7 8 9 10 11 12 13 14 15 16 17 18 19 20 21 22 23 24 25 26 27 28 29 30 31 32 33 34 35 36 37 38 39 40 41 42 43 44 45 46 47 48 49 50
000
ASUS43 KDTX 260910
RWRMI
MICHIGAN HOURLY REGIONAL WEATHER ROUNDUP
NATIONAL WEATHER SERVICE DETROIT/PONTIAC MI
500 AM EDT TUE SEP 26 2017

NOTE: "FAIR" INDICATES FEW OR NO CLOUDS BELOW 12,000 FEET WITH NO
SIGNIFICANT WEATHER AND/OR OBSTRUCTION TO VISIBILITY.

MIZ047>049-052>055-059>063-066>070-074>076-081>083-261000-
SOUTHEAST LOWER MICHIGAN

CITY           SKY/WX    TMP DP  RH WIND       PRES   REMARKS
ADRIAN         CLEAR     63  61  93 CALM      30.00S
ALMA           CLEAR     57  55  92 CALM      29.98S
ANN ARBOR      FOG       62  62 100 CALM      29.98S VSB 1/4
BAD AXE        CLEAR     65  61  88 CALM      29.99S
CARO           CLEAR     61  60  96 CALM      29.97F FOG
DETROIT CITY   PTCLDY    70  67  90 CALM      29.98F
DETROIT        CLOUDY    71  67  87 CALM      29.98S
FLINT          CLEAR     63  61  93 CALM      29.99S
GROSSE ILE     CLOUDY    72  70  93 S3        29.97S
HILLSDALE      CLOUDY    63  61  94 CALM      29.99F
HOWELL         CLEAR     63  61  94 CALM      29.99S

CITY           SKY/WX    TMP DP  RH WIND       PRES   REMARKS
JACKSON        CLEAR     62  61  96 CALM      29.98F FOG
LAMBERTVILLE   CLOUDY    66  64  92 CALM      29.98S FOG
LANSING        CLEAR     66  60  81 CALM      29.98F
LAPEER         FAIR      62  61  97 CALM      29.99S FOG
MASON          CLEAR     63  61  93 CALM      29.98F FOG
MONROE         PTCLDY    66  64  93 CALM      29.98R FOG
MT. CLEMENS    MOCLDY    68  68 100 CALM      29.97S
PONTIAC        CLEAR     66  64  93 CALM      29.98F
PORT HOPE        N/A     72  62  71 SW6       29.96S
PORT HURON     FOG       64  63  94 CALM      29.99S VSB 1/4
TRI CITIES     CLEAR     68  64  87 SW6       29.98S
MIDLAND        FAIR      60  60 100 CALM      29.97S FOG
TROY           MOCLDY    71  65  84 CALM      30.00S
SAGINAW HB     CLEAR     64  61  88 S3        29.97S
$$
MIZ043>046-050>051-056>058-064>065-071>073-077>080-261000-
SOUTHWEST LOWER MICHIGAN

CITY           SKY/WX    TMP DP  RH WIND       PRES   REMARKS
BATTLE CREEK   CLEAR     65  60  84 CALM      29.98F
BENTON HARBOR  CLEAR     62  57  83 CALM      29.95F
BIG RAPIDS     CLEAR     56  54  92 E5        29.97F
COLDWATER      CLEAR     63  63 100 CALM      29.99S
FREMONT        FAIR      64  58  81 E3        29.96S
HOLLAND        CLEAR     64  58  80 CALM      29.96F
GRAND RAPIDS   CLEAR     63  58  83 CALM      29.97S
IONIA          FAIR      65  57  77 CALM      29.97S
KALAMAZOO      CLEAR     63  58  83 CALM      29.98F
LUDINGTON      CLEAR     57  56  96 CALM      29.93F
MARSHALL       CLEAR     62  61  97 CALM      29.98S
MOUNT PLEASANT   N/A     61  60  94 CALM      29.98S FOG
MUSKEGON       CLEAR     64  58  80 CALM      29.95F
SOUTH HAVEN    CLEAR     61  58  88 CALM      29.96S
$$
MIZ016>042-261000-
NORTHERN LOWER MICHIGAN

CITY           SKY/WX    TMP DP  RH WIND       PRES   REMARKS
ALPENA         MOCLDY    62  61  96 CALM      29.97S
BEAVER ISLAND  CLEAR     58  58 100 CALM      29.94F FOG
BELLAIRE       FOG       56  55  96 NE3       29.96S VSB 1/2
CADILLAC       CLEAR     57  52  83 CALM      29.98S
CHARLEVOIX     CLEAR     62  62 100 CALM      29.98S
FRANKFORT      CLEAR     58  58  99 CALM      29.94F
GAYLORD        CLEAR     55  52  89 CALM      29.99S
GRAYLING       CLEAR     53  50  92 CALM      29.99F FOG
HARBOR SPRINGS CLEAR     61  59  95 E5        29.96S
HOUGHTON LAKE  PTCLDY    58  56  93 CALM      29.99F
OSCODA         CLEAR     62  61  95 CALM      29.96S FOG
PELLSTON       PTCLDY    54  53  97 CALM      29.96S FOG
ROGERS CITY    CLEAR     67  64  88 SW3       29.97S
TRAVERSE CITY  CLEAR     62  57  83 CALM      29.94S HAZE
$$
MIZ007>008-015-261000-
EASTERN UPPER MICHIGAN

CITY           SKY/WX    TMP DP  RH WIND       PRES   REMARKS
KINROSS        CLOUDY    62  62 100 CALM      29.96S FOG
MACKINAC ISLAN MOCLDY    64  64 100 CALM      29.95S FOG
NEWBERRY       MOCLDY    56  55  97 CALM      29.94F FOG
S. S. MARIE    CLEAR     65  62  90 E3        29.95S
MUNISING         N/A     61  61 100 CALM      29.91F
$$
MIZ004>006-011>014-085-261000-
CENTRAL UPPER MICHIGAN

CITY           SKY/WX    TMP DP  RH WIND       PRES   REMARKS
MANISTIQUE     HAZE      58  52  81 N3        29.93F VSB 3/4
MENOMINEE      FOG       64  64 100 E6        29.93F VSB 1/4
SAWYER-GWINN   FOG       57  56  98 CALM      29.94S VSB 1/2
$$
MIZ001>003-009>011-084-261000-
WESTERN UPPER MICHIGAN

CITY           SKY/WX    TMP DP  RH WIND       PRES   REMARKS
IRON MOUNTAIN  CLOUDY    64  61  90 CALM      29.92F FOG
HOUGHTON       CLOUDY    57  54  89 NE6       29.93F
COPPER HARBOR    N/A     57  55  93 E10       29.95F
IRONWOOD       CLOUDY    55  55 100 E7        29.94F FOG
$$

ABBREVIATIONS USED IN REMARKS
   TC - TEMPERATURE IN CELSIUS
  WCI - WIND CHILL INDEX
   HX - HEAT INDEX
  VSB - VISIBILITY





USA.gov is the U.S. government's official web portal to all federal, state and local government web resources and services.